Simultaneous Nadir Overpasses (SNOs) Predictions

Prediction of SNOs between NOAA-19 and NPP Satellite Orbit:

Table of predicted SNOs for the next 14.0 days since TLE Epoch: 12/14/2019
Index Date (NOAA-19) Time (NOAA-19) Lat,Lon (NOAA-19) SZA (NOAA-19 ) Date (NPP) Time (NPP) Lat,Lon (NPP) SZA (NPP ) Distance(km) Time Diff (sec)
1 12/19/2019 15:33:43 -79.71, 90.43 75.14 12/19/2019 15:34:54 -79.70, 90.44 75.18 1.80 71
2 12/19/2019 16:24:47 79.72,-102.29 104.87 12/19/2019 16:25:39 79.69,-102.21 104.82 3.17 52
3 12/19/2019 17:15:44 -79.70, 64.84 75.14 12/19/2019 17:16:24 -79.70, 65.02 75.17 3.63 40
4 12/19/2019 18:06:48 79.71,-127.88 104.87 12/19/2019 18:07:10 79.73,-127.91 104.88 2.24 22
5 12/19/2019 18:57:44 -79.72, 39.55 75.14 12/19/2019 18:57:54 -79.71, 39.61 75.16 2.29 10
6 12/19/2019 19:48:48 79.73,-153.17 104.87 12/19/2019 19:48:40 79.73,-153.33 104.89 3.23 8
7 12/19/2019 20:39:45 -79.72, 13.96 75.13 12/19/2019 20:39:25 -79.74, 13.91 75.10 3.08 20
8 12/19/2019 21:30:49 79.72,-178.75 104.87 12/19/2019 21:30:10 79.74,-178.74 104.90 1.93 39
9 12/19/2019 22:21:45 -79.73, -11.33 75.14 12/19/2019 22:20:54 -79.72, -11.22 75.14 3.04 51
10 12/19/2019 23:12:49 79.74, 155.96 104.87 12/19/2019 23:11:40 79.74, 155.84 104.91 2.37 69




NCC Satellite Simultaneous Nadir Overpasses (SNOs) Prediction Service
